When you browse on this site, cookies collect data to enhance your experience and personalize the content and advertising you see.
Visit our Privacy Policy to learn more. By continuing to use the site, you agree to this use of cookies and data.
  • In Lithuania
  • List of Countries
  • For 7 days
  • Water Temperature
  • Satellite Maps
  • Weather Map
  • Weather Widgets
  • user-avatar
    Login

    Hourly Weather Sidi Bu-l-Abbas

    Today, 24 May, Friday

    Time Temperature Precipitation Wind Pressure Humidity
    00:00 +22°C° 0 mm 1 mps 719 mmHg 38%
    01:00 +22°C° 0 mm 1 mps 719 mmHg 38%
    02:00 +21°C° 0 mm 1 mps 719 mmHg 39%
    03:00 +20°C° 0 mm 2 mps 718 mmHg 40%
    04:00 +21°C° 0 mm 1 mps 718 mmHg 42%
    05:00 +21°C° 0 mm 1 mps 718 mmHg 43%
    06:00 +20°C° 0 mm 0 mps 718 mmHg 45%
    07:00 +23°C° 0 mm 1 mps 718 mmHg 39%
    08:00 +25°C° 0 mm 1 mps 718 mmHg 34%
    09:00 +26°C° 0 mm 2 mps 718 mmHg 28%
    10:00 +28°C° 0 mm 3 mps 718 mmHg 26%
    11:00 +29°C° 0 mm 4 mps 718 mmHg 25%
    12:00 +30°C° 0 mm 5 mps 718 mmHg 23%
    13:00 +30°C° 0 mm 5 mps 717 mmHg 22%
    14:00 +30°C° 0 mm 6 mps 717 mmHg 21%
    15:00 +30°C° 0 mm 7 mps 717 mmHg 20%
    16:00 +29°C° 0 mm 6 mps 716 mmHg 22%
    17:00 +27°C° 0 mm 6 mps 716 mmHg 23%
    18:00 +26°C° 0 mm 5 mps 716 mmHg 25%
    19:00 +25°C° 0 mm 4 mps 717 mmHg 29%
    20:00 +24°C° 0 mm 3 mps 717 mmHg 32%
    21:00 +23°C° 0 mm 2 mps 717 mmHg 36%
    22:00 +21°C° 0 mm 2 mps 717 mmHg 41%
    23:00 +20°C° 0 mm 2 mps 717 mmHg 45%

    Tomorrow, 25 May, Saturday

    Time Temperature Precipitation Wind Pressure Humidity
    00:00 +19°C° 0 mm 2 mps 717 mmHg 50%
    01:00 +19°C° 0 mm 2 mps 717 mmHg 56%
    02:00 +18°C° 0 mm 2 mps 717 mmHg 63%
    03:00 +17°C° 0 mm 2 mps 717 mmHg 70%
    04:00 +17°C° 0 mm 2 mps 717 mmHg 74%
    05:00 +17°C° 0 mm 2 mps 717 mmHg 77%
    06:00 +17°C° 0 mm 2 mps 717 mmHg 80%
    07:00 +18°C° 0 mm 3 mps 718 mmHg 72%
    08:00 +19°C° 0 mm 3 mps 718 mmHg 64%
    09:00 +19°C° 0 mm 4 mps 719 mmHg 56%
    10:00 +21°C° 0 mm 5 mps 719 mmHg 52%
    11:00 +22°C° 0 mm 5 mps 719 mmHg 48%
    12:00 +23°C° 0 mm 6 mps 719 mmHg 44%
    13:00 +23°C° 0.2 mm 6 mps 719 mmHg 45%
    14:00 +23°C° 0.2 mm 7 mps 719 mmHg 45%
    15:00 +23°C° 0.2 mm 7 mps 719 mmHg 46%
    16:00 +22°C° 0 mm 6 mps 719 mmHg 49%
    17:00 +21°C° 0 mm 6 mps 720 mmHg 53%
    18:00 +20°C° 0 mm 5 mps 720 mmHg 56%
    19:00 +19°C° 0 mm 4 mps 720 mmHg 60%
    20:00 +18°C° 0 mm 3 mps 721 mmHg 64%
    21:00 +18°C° 0 mm 2 mps 721 mmHg 69%
    22:00 +17°C° 0 mm 2 mps 721 mmHg 71%
    23:00 +17°C° 0 mm 2 mps 720 mmHg 74%

    Day after tomorrow, 26 May, Sunday

    Time Temperature Precipitation Wind Pressure Humidity
    00:00 +18°C° 0 mm 1 mps 720 mmHg 77%
    01:00 +16°C° 0 mm 1 mps 720 mmHg 78%
    02:00 +16°C° 0 mm 1 mps 720 mmHg 80%
    03:00 +15°C° 0 mm 1 mps 720 mmHg 82%
    04:00 +16°C° 0 mm 1 mps 720 mmHg 80%
    05:00 +16°C° 0 mm 1 mps 720 mmHg 79%
    06:00 +16°C° 0 mm 1 mps 720 mmHg 77%
    07:00 +18°C° 0 mm 1 mps 720 mmHg 69%
    08:00 +19°C° 0 mm 1 mps 721 mmHg 62%
    09:00 +19°C° 0 mm 2 mps 721 mmHg 54%
    10:00 +21°C° 0 mm 3 mps 721 mmHg 49%
    11:00 +22°C° 0 mm 3 mps 721 mmHg 44%
    12:00 +23°C° 0 mm 4 mps 721 mmHg 39%
    13:00 +25°C° 0 mm 4 mps 721 mmHg 38%
    14:00 +25°C° 0 mm 5 mps 720 mmHg 36%
    15:00 +26°C° 0 mm 5 mps 720 mmHg 35%
    16:00 +25°C° 0 mm 5 mps 720 mmHg 39%
    17:00 +23°C° 0 mm 5 mps 720 mmHg 42%
    18:00 +23°C° 0 mm 5 mps 719 mmHg 46%
    19:00 +22°C° 0 mm 4 mps 720 mmHg 51%
    20:00 +21°C° 0 mm 3 mps 720 mmHg 56%
    21:00 +20°C° 0 mm 2 mps 720 mmHg 60%
    22:00 +20°C° 0 mm 2 mps 720 mmHg 63%
    23:00 +20°C° 0 mm 1 mps 720 mmHg 65%

    27 May, Monday

    Time Temperature Precipitation Wind Pressure Humidity
    00:00 +20°C° 0 mm 1 mps 719 mmHg 67%
    01:00 +19°C° 0 mm 1 mps 719 mmHg 68%
    02:00 +19°C° 0 mm 1 mps 719 mmHg 69%
    03:00 +18°C° 0 mm 1 mps 718 mmHg 70%
    04:00 +19°C° 0 mm 1 mps 718 mmHg 67%
    05:00 +20°C° 0 mm 1 mps 718 mmHg 64%
    06:00 +20°C° 0 mm 1 mps 718 mmHg 61%
    07:00 +22°C° 0 mm 1 mps 719 mmHg 52%
    08:00 +21°C° 0 mm 0 mps 719 mmHg 43%
    09:00 +23°C° 0 mm 0 mps 719 mmHg 34%
    10:00 +26°C° 0 mm 1 mps 719 mmHg 30%
    11:00 +28°C° 0 mm 1 mps 719 mmHg 26%
    12:00 +29°C° 0 mm 1 mps 719 mmHg 22%
    13:00 +29°C° 0 mm 2 mps 718 mmHg 22%
    14:00 +30°C° 0 mm 3 mps 718 mmHg 22%
    15:00 +32°C° 0 mm 4 mps 718 mmHg 21%
    16:00 +30°C° 0 mm 4 mps 717 mmHg 24%
    17:00 +29°C° 0 mm 5 mps 717 mmHg 27%
    18:00 +29°C° 0 mm 5 mps 717 mmHg 29%
    19:00 +27°C° 0 mm 4 mps 717 mmHg 32%
    20:00 +26°C° 0 mm 3 mps 718 mmHg 36%
    21:00 +25°C° 0 mm 2 mps 718 mmHg 39%
    22:00 +24°C° 0 mm 2 mps 718 mmHg 40%
    23:00 +23°C° 0 mm 1 mps 717 mmHg 42%

    28 May, Tuesday

    Time Temperature Precipitation Wind Pressure Humidity
    00:00 +23°C° 0 mm 1 mps 717 mmHg 44%
    01:00 +22°C° 0 mm 1 mps 717 mmHg 45%
    02:00 +20°C° 0 mm 0 mps 716 mmHg 47%
    03:00 +19°C° 0 mm 0 mps 716 mmHg 48%
    04:00 +20°C° 0 mm 0 mps 716 mmHg 47%
    05:00 +22°C° 0 mm 1 mps 716 mmHg 46%
    06:00 +23°C° 0 mm 1 mps 716 mmHg 45%
    07:00 +25°C° 0 mm 1 mps 716 mmHg 39%
    08:00 +26°C° 0 mm 1 mps 716 mmHg 33%
    09:00 +28°C° 0 mm 1 mps 717 mmHg 28%
    10:00 +29°C° 0 mm 1 mps 717 mmHg 25%
    11:00 +31°C° 0 mm 2 mps 716 mmHg 23%
    12:00 +32°C° 0 mm 2 mps 716 mmHg 21%
    13:00 +33°C° 0 mm 3 mps 716 mmHg 21%
    14:00 +34°C° 0 mm 4 mps 715 mmHg 21%
    15:00 +34°C° 0 mm 5 mps 715 mmHg 21%
    16:00 +33°C° 0 mm 5 mps 715 mmHg 22%
    17:00 +32°C° 0 mm 4 mps 715 mmHg 24%
    18:00 +30°C° 0 mm 3 mps 715 mmHg 25%
    19:00 +29°C° 0 mm 2 mps 715 mmHg 28%
    20:00 +28°C° 0 mm 1 mps 716 mmHg 31%
    21:00 +24°C° 0 mm 0 mps 716 mmHg 34%
    22:00 +26°C° 0 mm 1 mps 716 mmHg 35%
    23:00 +26°C° 0 mm 1 mps 716 mmHg 36%

    29 May, Wednesday

    Time Temperature Precipitation Wind Pressure Humidity
    00:00 +25°C° 0 mm 1 mps 717 mmHg 36%
    01:00 +24°C° 0.2 mm 1 mps 716 mmHg 42%
    02:00 +23°C° 0.2 mm 1 mps 716 mmHg 47%
    03:00 +21°C° 0.2 mm 2 mps 716 mmHg 53%
    04:00 +20°C° 0 mm 2 mps 717 mmHg 58%
    05:00 +20°C° 0 mm 3 mps 717 mmHg 63%
    06:00 +19°C° 0 mm 3 mps 717 mmHg 68%
    07:00 +20°C° 0 mm 3 mps 718 mmHg 65%
    08:00 +21°C° 0 mm 4 mps 718 mmHg 61%
    09:00 +22°C° 0 mm 5 mps 719 mmHg 58%
    10:00 +23°C° 0 mm 5 mps 719 mmHg 54%
    11:00 +23°C° 0 mm 6 mps 719 mmHg 49%
    12:00 +24°C° 0 mm 7 mps 720 mmHg 45%
    13:00 +24°C° 0 mm 7 mps 720 mmHg 43%
    14:00 +24°C° 0 mm 8 mps 720 mmHg 42%
    15:00 +24°C° 0 mm 8 mps 720 mmHg 41%
    16:00 +23°C° 0 mm 7 mps 720 mmHg 43%
    17:00 +22°C° 0 mm 6 mps 720 mmHg 46%
    18:00 +21°C° 0 mm 5 mps 720 mmHg 48%
    19:00 +20°C° 0 mm 5 mps 721 mmHg 52%
    20:00 +19°C° 0 mm 4 mps 721 mmHg 56%
    21:00 +18°C° 0 mm 3 mps 722 mmHg 61%
    22:00 +18°C° 0 mm 2 mps 722 mmHg 63%
    23:00 +17°C° 0 mm 2 mps 722 mmHg 65%
    Show more